This is the latest recevied weather packets stored in our database for station/object N8VDS-10. If no packets are shown the sender has not sent any weather packets the latest 10 day(s).
| Time | Temp. | Humidity | Pressure | Rain* | Wind** | Luminosity | Snow |
|---|---|---|---|---|---|---|---|
| 1777327729 | 17.78° C | 56% | 1016.7 hPa | 0 mm | - | 88 W/m² | - |
| 1777327426 | 17.78° C | 55% | 1017 hPa | 0 mm | - | 93 W/m² | - |
| 1777327123 | 17.78° C | 56% | 1016.8 hPa | 0 mm | - | 99 W/m² | - |
| 1777326819 | 17.78° C | 56% | 1017 hPa | 0 mm | - | 117 W/m² | - |
| 1777326517 | 17.78° C | 55% | 1017.1 hPa | 0 mm | - | 134 W/m² | - |
| 1777326215 | 17.78° C | 55% | 1017 hPa | 0 mm | - | 137 W/m² | - |
| 1777325912 | 17.78° C | 55% | 1016.7 hPa | 0 mm | - | 126 W/m² | - |
| 1777325610 | 17.78° C | 55% | 1017 hPa | 0 mm | - | 116 W/m² | - |
| 1777325308 | 17.78° C | 56% | 1016.9 hPa | 0 mm | - | 118 W/m² | - |
| 1777325006 | 17.78° C | 55% | 1017 hPa | 0 mm | - | 123 W/m² | - |
| 1777324702 | 17.78° C | 55% | 1017.1 hPa | 0 mm | - | 133 W/m² | - |
| 1777324400 | 17.78° C | 55% | 1017 hPa | 0 mm | - | 139 W/m² | - |
| 1777324097 | 17.78° C | 55% | 1017 hPa | 0 mm | - | 138 W/m² | - |
| 1777323795 | 17.78° C | 54% | 1017.2 hPa | 0 mm | - | 134 W/m² | - |
| 1777323491 | 17.78° C | 54% | 1017.2 hPa | 0 mm | - | 135 W/m² | - |
| 1777323188 | 18.33° C | 54% | 1017.2 hPa | 0 mm | - | 148 W/m² | - |
| 1777322886 | 18.33° C | 53% | 1017.2 hPa | 0 mm | - | 155 W/m² | - |
| 1777322585 | 18.33° C | 53% | 1017.3 hPa | 0 mm | - | 155 W/m² | - |
| 1777322281 | 18.89° C | 52% | 1017.4 hPa | 0 mm | - | 153 W/m² | - |
| 1777321973 | 18.89° C | 50% | 1017.4 hPa | 0 mm | - | 143 W/m² | - |
| 1777321670 | 18.89° C | 50% | 1017.6 hPa | 0 mm | - | 141 W/m² | - |
| 1777321366 | 18.89° C | 50% | 1017.7 hPa | 0 mm | - | 144 W/m² | - |
| 1777321064 | 18.89° C | 50% | 1017.5 hPa | 0 mm | - | 150 W/m² | - |
| 1777320762 | 18.89° C | 49% | 1017.4 hPa | 0 mm | - | 158 W/m² | - |
| 1777320458 | 18.89° C | 49% | 1017.5 hPa | 0 mm | - | 159 W/m² | - |
* Rain latest hour (hover to see other rain measurements)
** Current wind speed in m/s (hover to see current wind gust speed)